STARLINK-11139, 60402

Orbit data source: Space-Track

STARLINK-11139, 60402 is a payload satellite owned by SpaceX/Seattle (US) in LEO that was launched on Sat, 10 Aug 2024 UTC via an FALCON 9 launch vehicle from the Air Force Eastern Test Range (AFETR). Payloads include a variety of satellites, spacecraft, and rockets equipped with specific instruments for various scientific and technological missions. These include communications satellites like Starlink; space stations such as the ISS; scientific satellites like the Hubble; Earth observation satellites from companies like Planet Labs, Umbra, and HawkEye 360; GPS; miniature CubeSats for education and research; and military/defense satellites.

Loading next visibility...
STARLINK-11139 details
Identifier
60402, 2024-141E
Orbit
LEO
Last TLE update15 hours ago
Origin
Flag of USSpaceX/Seattle (US)
ManufacturerSpaceX/Seattle
MissionOperational spacecraft
Bus & MotorSTARLINK V2M, Unknown motor
Mass730 kg wet, ~700 kg dry
Launch date (UTC)
2024-08-10 (5 months ago)
Launch vehicle
FALCON 9
Launch site
Air Force Eastern Test Range (AFETR)
Object type
Payload
Rocket body
Debris
Shape & HBRUnknown
Radar Cross SectionLarge (>1 m²)

Expand to show TLE details & history

TLE from 15 hours ago
0 STARLINK-11139
1 60402U 24141E   25014.65843837 -.00000506  00000-0  68165-6 0  9994
2 60402  53.1592 351.6109 0001148 108.3823 251.7320 15.69712914 25937
Epoch: 2025-01-14T15:48Z
Definitive object data (Epoch: 2025-01-14T15:48:09.075Z)
Latitude0.00001°
Longitude0.21112°
Altitude360.876 km
Speed7.694 km/s
True Right ascension23h 26m 26s
True Declination0° 00' 00"
Sunlit
Object was in daylight at TLE epoch
Visualization TLE readout
Latitude-37.517°
Longitude-37.7765°
Altitude372.587 km
Speed7.685 km/s
Apparent Right ascension20h 15m 03s
Apparent Declination-38° 57' 22"
Sunlit
Object is in daylight
Visualization observer readout
Local Sidereal Time07:31:52
Azimuth273.112° WNW
Elevation-81.611°
Doppler factor1
Orbital elements
Apogee altitude360.753 km
Perigee altitude359.206 km
Semi-major axis6,738.116 km
Eccentricity0.0001148
Inclination53.1592°
RAAN351.6109°
Arg. of periapsis108.3823°
True anomaly251.71951°
Mean anomaly251.732°
Eccentric anomaly251.72575°
Mean motion3.92406 °/min
BSTAR6.8165e-7
Orbital period91.74 mins
Loading maneuver chart data...
Loading historical data...
Loading historical data...
Loading historical data...
Loading historical data...
Loading historical data...
Loading historical data...
Loading historical data...

STARLINK-11139 Visibility forecast

Observer location: undefined°, undefined

Span
Click to sort rows by Start time (UTC) header in descending order
Start Az.
Max El. time (UTC)
Max El. Az.
Max El.
End time (UTC)
End Az.
4 mins2025-01-15 07:34:25.242Z325.698° NNW2025-01-15 07:36:25.242Z40.655° NE36.955°2025-01-15 07:38:25.242Z108.407° ESE
|